Terminal Aerodrome Forecast
Issued by NWS

Home | Current Version | Previous Version | Text Only | Print | Product List | Glossary On
Versions: 1 2 3 4 5 6 7 8 9 10 11 12 13 14 15
021
FTUS45 KRIW 141120
TAFCOD
TAF
KCOD 141120Z 1412/1512 26014G24KT P6SM FEW090 SCT200
     FM142000 02007KT P6SM VCSH BKN060
     FM150200 VRB06KT P6SM SCT070
     FM150900 25012G18KT P6SM SCT070 BKN110
      AMD LTD TO CLD VIS AND WIND=

USA.gov is the U.S. government's official web portal to all federal, state and local government web resources and services.